^^

..:: Storico WU ::..




Lo storico viene creato da WUnderground con i dati che la stazione Meteomincio invia al loro server. L' aggiornamento viene fatto ogni 5 minuti circa, tuttavia possono esserci intervalli pił ampi a causa di errori, interruzioni di servizio o problemi nell' invio tramite FTP.


Storico stazione MeteoMincio
Giorno Sommario per Ottobre 01, 2023 Unità:  Inglese    Metrico   Entrambi
Giorno Settimana Mese Anno
  Max: Min: Media:
Temperatura: 82.4 °F 57.2 °F 68.9 °F
Dew Point: 66.2 °F 55.4 °F 60.6 °F
Umidità: 91% 52% 76%
Velocità vento: 5mph 0mph 1.9mph
Raffica: 8.1mph - -
Direzione- - East
Pressione: 30.3 in 30.2 in -
Precipitazioni: 0 in    
 
 
Tabulato Dati per Ottobre 01, 2023
Ora Temperatura Dew Point Pressione Direzione Velocità vento Raffica Umidità Intensità pioggia (oraria) Info solare Situazione
00:04 64.4 °F 59 °F 30.2 in NE 1.9 mph 3.7 mph 84% 0 in 0.00 W/m2 unknown
00:09 64.4 °F 59 °F 30.2 in NE 2.5 mph 3.7 mph 84% 0 in 0.00 W/m2 unknown
00:14 64.4 °F 59 °F 30.2 in NE 2.5 mph 3.7 mph 84% 0 in 0.00 W/m2 unknown
00:19 64.4 °F 59 °F 30.2 in NE 1.9 mph 2.5 mph 84% 0 in 0.00 W/m2 unknown
00:24 64.4 °F 59 °F 30.2 in NE 1.2 mph 2.5 mph 84% 0 in 0.00 W/m2 unknown
00:29 64.4 °F 59 °F 30.2 in NE 2.5 mph 3.7 mph 85% 0 in 0.00 W/m2 unknown
00:34 64.4 °F 59 °F 30.2 in NE 2.5 mph 3.7 mph 85% 0 in 0.00 W/m2 unknown
00:39 64.4 °F 59 °F 30.2 in ENE 3.1 mph 3.7 mph 85% 0 in 0.00 W/m2 unknown
00:44 64.4 °F 59 °F 30.2 in ENE 2.5 mph 3.7 mph 85% 0 in 0.00 W/m2 unknown
00:49 64.4 °F 59 °F 30.2 in ENE 3.7 mph 3.7 mph 85% 0 in 0.00 W/m2 unknown
00:54 64.4 °F 59 °F 30.2 in ENE 3.7 mph 5 mph 85% 0 in 0.00 W/m2 unknown
00:59 62.6 °F 59 °F 30.2 in ENE 3.1 mph 5 mph 85% 0 in 0.00 W/m2 unknown
01:04 62.6 °F 59 °F 30.2 in ENE 3.1 mph 5 mph 85% 0 in 0.00 W/m2 unknown
01:09 62.6 °F 59 °F 30.2 in ENE 3.1 mph 5 mph 85% 0 in 0.00 W/m2 unknown
01:14 62.6 °F 59 °F 30.2 in ENE 3.1 mph 3.7 mph 85% 0 in 0.00 W/m2 unknown
01:19 62.6 °F 59 °F 30.2 in ENE 2.5 mph 3.7 mph 85% 0 in 0.00 W/m2 unknown
01:24 62.6 °F 59 °F 30.2 in ENE 1.9 mph 3.7 mph 85% 0 in 0.00 W/m2 unknown
01:29 62.6 °F 59 °F 30.2 in ENE 1.9 mph 3.7 mph 85% 0 in 0.00 W/m2 unknown
01:34 62.6 °F 59 °F 30.2 in ENE 1.9 mph 3.7 mph 85% 0 in 0.00 W/m2 unknown
01:39 62.6 °F 59 °F 30.2 in ENE 2.5 mph 3.7 mph 85% 0 in 0.00 W/m2 unknown
01:44 62.6 °F 59 °F 30.2 in ENE 1.9 mph 3.7 mph 85% 0 in 0.00 W/m2 unknown
01:49 62.6 °F 59 °F 30.2 in ENE 1.9 mph 2.5 mph 85% 0 in 0.00 W/m2 unknown
01:54 62.6 °F 59 °F 30.2 in ENE 1.2 mph 2.5 mph 85% 0 in 0.00 W/m2 unknown
01:59 62.6 °F 59 °F 30.2 in ENE 1.9 mph 2.5 mph 85% 0 in 0.00 W/m2 unknown
02:04 62.6 °F 59 °F 30.2 in ENE 1.9 mph 2.5 mph 86% 0 in 0.00 W/m2 unknown
02:09 62.6 °F 59 °F 30.2 in ENE 1.2 mph 2.5 mph 87% 0 in 0.00 W/m2 unknown
02:14 62.6 °F 59 °F 30.2 in ENE 1.9 mph 3.1 mph 87% 0 in 0.00 W/m2 unknown
02:19 62.6 °F 59 °F 30.2 in ENE 1.9 mph 3.7 mph 87% 0 in 0.00 W/m2 unknown
02:24 62.6 °F 59 °F 30.2 in ENE 1.9 mph 3.1 mph 88% 0 in 0.00 W/m2 unknown
02:29 62.6 °F 59 °F 30.2 in ENE 1.9 mph 3.7 mph 88% 0 in 0.00 W/m2 unknown
02:34 62.6 °F 59 °F 30.2 in ENE 1.9 mph 3.7 mph 87% 0 in 0.00 W/m2 unknown
02:39 62.6 °F 59 °F 30.2 in ENE 2.5 mph 3.7 mph 87% 0 in 0.00 W/m2 unknown
02:44 62.6 °F 59 °F 30.2 in ENE 2.5 mph 3.7 mph 87% 0 in 0.00 W/m2 unknown
02:49 62.6 °F 59 °F 30.2 in ENE 1.9 mph 3.7 mph 87% 0 in 0.00 W/m2 unknown
02:54 62.6 °F 59 °F 30.2 in ENE 1.2 mph 3.1 mph 87% 0 in 0.00 W/m2 unknown
02:59 62.6 °F 59 °F 30.2 in ENE 1.2 mph 1.9 mph 86% 0 in 0.00 W/m2 unknown
03:04 62.6 °F 59 °F 30.2 in ENE 0.6 mph 1.2 mph 86% 0 in 0.00 W/m2 unknown
03:09 62.6 °F 59 °F 30.2 in ENE 0.6 mph 1.2 mph 87% 0 in 0.00 W/m2 unknown
03:14 62.6 °F 59 °F 30.2 in ENE 1.2 mph 2.5 mph 87% 0 in 0.00 W/m2 unknown
03:19 62.6 °F 59 °F 30.2 in ENE 1.2 mph 2.5 mph 87% 0 in 0.00 W/m2 unknown
03:24 62.6 °F 57.2 °F 30.2 in NNE 1.9 mph 2.5 mph 87% 0 in 0.00 W/m2 unknown
03:29 62.6 °F 57.2 °F 30.2 in NNE 1.9 mph 3.7 mph 87% 0 in 0.00 W/m2 unknown
03:34 62.6 °F 57.2 °F 30.2 in North 1.9 mph 3.7 mph 87% 0 in 0.00 W/m2 unknown
03:39 60.8 °F 57.2 °F 30.2 in North 1.2 mph 3.1 mph 87% 0 in 0.00 W/m2 unknown
03:44 60.8 °F 57.2 °F 30.2 in NNE 1.2 mph 2.5 mph 87% 0 in 0.00 W/m2 unknown
03:49 60.8 °F 57.2 °F 30.2 in NNE 0.6 mph 2.5 mph 87% 0 in 0.00 W/m2 unknown
03:54 60.8 °F 57.2 °F 30.2 in Calm   1.9 mph 87% 0 in 0.00 W/m2 unknown
03:59 60.8 °F 57.2 °F 30.2 in Calm   1.2 mph 87% 0 in 0.00 W/m2 unknown
04:04 60.8 °F 57.2 °F 30.2 in Calm     87% 0 in 0.00 W/m2 unknown
04:09 60.8 °F 57.2 °F 30.2 in NNE 1.2 mph 2.5 mph 88% 0 in 0.00 W/m2 unknown
04:14 60.8 °F 57.2 °F 30.2 in NNE 1.2 mph 2.5 mph 88% 0 in 0.00 W/m2 unknown
04:19 60.8 °F 57.2 °F 30.2 in NNE 1.2 mph 1.9 mph 88% 0 in 0.00 W/m2 unknown
04:24 60.8 °F 57.2 °F 30.2 in NNE 1.2 mph 1.2 mph 88% 0 in 0.00 W/m2 unknown
04:29 60.8 °F 57.2 °F 30.2 in NNE 0.6 mph 1.2 mph 88% 0 in 0.00 W/m2 unknown
04:34 60.8 °F 57.2 °F 30.2 in Calm   1.2 mph 89% 0 in 0.00 W/m2 unknown
04:39 60.8 °F 57.2 °F 30.2 in Calm   1.2 mph 89% 0 in 0.00 W/m2 unknown
04:44 60.8 °F 57.2 °F 30.2 in Calm   1.2 mph 89% 0 in 0.00 W/m2 unknown
04:49 60.8 °F 57.2 °F 30.2 in Calm     89% 0 in 0.00 W/m2 unknown
04:54 60.8 °F 57.2 °F 30.2 in NNE 0.6 mph 1.2 mph 89% 0 in 0.00 W/m2 unknown
04:59 59 °F 57.2 °F 30.2 in Calm   1.2 mph 89% 0 in 0.00 W/m2 unknown
05:04 59 °F 55.4 °F 30.2 in Calm     89% 0 in 0.00 W/m2 unknown
05:09 59 °F 55.4 °F 30.2 in NNE 0.6 mph 1.2 mph 89% 0 in 0.00 W/m2 unknown
05:14 59 °F 55.4 °F 30.2 in NNE 0.6 mph 1.2 mph 90% 0 in 0.00 W/m2 unknown
05:19 59 °F 55.4 °F 30.2 in Calm   1.2 mph 90% 0 in 0.00 W/m2 unknown
05:24 59 °F 55.4 °F 30.2 in NNE 1.2 mph 2.5 mph 90% 0 in 0.00 W/m2 unknown
05:29 59 °F 55.4 °F 30.2 in NNE 1.2 mph 1.9 mph 90% 0 in 0.00 W/m2 unknown
05:34 59 °F 55.4 °F 30.2 in Calm   1.2 mph 90% 0 in 0.00 W/m2 unknown
05:39 59 °F 55.4 °F 30.2 in Calm     91% 0 in 0.00 W/m2 unknown
05:44 59 °F 55.4 °F 30.2 in Calm     91% 0 in 0.00 W/m2 unknown
05:49 59 °F 55.4 °F 30.2 in Calm     91% 0 in 0.00 W/m2 unknown
05:54 59 °F 55.4 °F 30.2 in NNE 0.6 mph 1.2 mph 91% 0 in 0.00 W/m2 unknown
05:59 59 °F 55.4 °F 30.2 in Calm   1.2 mph 91% 0 in 0.00 W/m2 unknown
06:04 59 °F 55.4 °F 30.2 in NNE 0.6 mph 1.2 mph 91% 0 in 0.00 W/m2 unknown
06:09 59 °F 55.4 °F 30.2 in NNE 1.2 mph 1.2 mph 91% 0 in 0.00 W/m2 unknown
06:14 59 °F 55.4 °F 30.2 in NNE 0.6 mph 1.2 mph 91% 0 in 0.00 W/m2 unknown
06:19 59 °F 55.4 °F 30.2 in Calm   1.2 mph 91% 0 in 0.00 W/m2 unknown
06:24 59 °F 55.4 °F 30.2 in Calm   1.2 mph 91% 0 in 0.00 W/m2 unknown
06:29 59 °F 55.4 °F 30.2 in Calm     90% 0 in 0.00 W/m2 unknown
06:34 59 °F 55.4 °F 30.2 in Calm     90% 0 in 0.00 W/m2 unknown
06:39 59 °F 55.4 °F 30.2 in NNE 0.6 mph 1.2 mph 90% 0 in 0.00 W/m2 unknown
06:44 59 °F 55.4 °F 30.2 in NNE 1.2 mph 1.2 mph 90% 0 in 0.00 W/m2 unknown
06:49 57.2 °F 55.4 °F 30.2 in NNE 1.2 mph 2.5 mph 91% 0 in 0.00 W/m2 unknown
06:54 57.2 °F 55.4 °F 30.2 in NNE 1.2 mph 1.9 mph 91% 0 in 0.00 W/m2 unknown
06:59 57.2 °F 55.4 °F 30.2 in Calm   1.2 mph 91% 0 in 0.00 W/m2 unknown
07:04 57.2 °F 55.4 °F 30.2 in Calm     91% 0 in 0.00 W/m2 unknown
07:09 57.2 °F 55.4 °F 30.2 in Calm     91% 0 in 0.00 W/m2 unknown
07:14 57.2 °F 55.4 °F 30.2 in Calm   1.2 mph 91% 0 in 0.00 W/m2 unknown
07:19 57.2 °F 55.4 °F 30.2 in Calm   1.2 mph 91% 0 in 0.00 W/m2 unknown
07:24 57.2 °F 55.4 °F 30.2 in Calm     91% 0 in 7.00 W/m2 unknown
07:29 57.2 °F 55.4 °F 30.2 in Calm     91% 0 in 11.00 W/m2 unknown
07:34 57.2 °F 55.4 °F 30.2 in Calm     91% 0 in 14.00 W/m2 unknown
07:39 57.2 °F 55.4 °F 30.2 in Calm     91% 0 in 19.00 W/m2 unknown
07:44 57.2 °F 55.4 °F 30.2 in North 1.9 mph 2.5 mph 91% 0 in 23.00 W/m2 unknown
07:49 57.2 °F 55.4 °F 30.2 in North 1.9 mph 2.5 mph 91% 0 in 26.00 W/m2 unknown
07:54 57.2 °F 55.4 °F 30.2 in North 0.6 mph 1.2 mph 91% 0 in 35.00 W/m2 unknown
07:59 59 °F 55.4 °F 30.2 in Calm   1.2 mph 91% 0 in 44.00 W/m2 unknown
08:04 59 °F 55.4 °F 30.2 in Calm   1.2 mph 91% 0 in 53.00 W/m2 unknown
08:09 59 °F 57.2 °F 30.2 in Calm     91% 0 in 62.00 W/m2 unknown
08:14 59 °F 57.2 °F 30.2 in Calm     91% 0 in 70.00 W/m2 unknown
08:19 59 °F 57.2 °F 30.2 in North 1.2 mph 2.5 mph 91% 0 in 83.00 W/m2 unknown
08:24 60.8 °F 57.2 °F 30.2 in North 1.2 mph 1.9 mph 91% 0 in 83.00 W/m2 unknown
08:29 60.8 °F 57.2 °F 30.2 in North 0.6 mph 1.2 mph 90% 0 in 93.00 W/m2 unknown
08:34 60.8 °F 57.2 °F 30.2 in North 0.6 mph 1.2 mph 90% 0 in 102.00 W/m2 unknown
08:39 62.6 °F 59 °F 30.2 in Calm   1.2 mph 89% 0 in 127.00 W/m2 unknown
08:44 62.6 °F 59 °F 30.2 in Calm   1.2 mph 88% 0 in 127.00 W/m2 unknown
08:49 62.6 °F 59 °F 30.2 in WNW 0.6 mph 1.2 mph 87% 0 in 156.00 W/m2 unknown
08:54 64.4 °F 59 °F 30.2 in Calm   1.2 mph 85% 0 in 169.00 W/m2 unknown
08:59 64.4 °F 59 °F 30.2 in Calm   1.2 mph 85% 0 in 181.00 W/m2 unknown
09:04 64.4 °F 59 °F 30.2 in Calm     83% 0 in 193.00 W/m2 unknown
09:09 66.2 °F 59 °F 30.2 in Calm     82% 0 in 209.00 W/m2 unknown
09:14 66.2 °F 59 °F 30.2 in WNW 0.6 mph 1.9 mph 80% 0 in 220.00 W/m2 unknown
09:19 66.2 °F 59 °F 30.2 in WNW 0.6 mph 1.9 mph 80% 0 in 237.00 W/m2 unknown
09:24 66.2 °F 60.8 °F 30.2 in WNW 0.6 mph 1.2 mph 79% 0 in 251.00 W/m2 unknown
09:29 68 °F 60.8 °F 30.2 in NW 0.6 mph 1.9 mph 78% 0 in 269.00 W/m2 unknown
09:34 68 °F 60.8 °F 30.3 in North 1.2 mph 2.5 mph 78% 0 in 281.00 W/m2 unknown
09:39 68 °F 60.8 °F 30.3 in NW 1.2 mph 2.5 mph 78% 0 in 294.00 W/m2 unknown
09:44 68 °F 60.8 °F 30.3 in WNW 1.2 mph 1.9 mph 76% 0 in 302.00 W/m2 unknown
09:49 68 °F 60.8 °F 30.3 in West 1.2 mph 2.5 mph 75% 0 in 315.00 W/m2 unknown
09:54 68 °F 60.8 °F 30.3 in WNW 1.2 mph 1.9 mph 76% 0 in 320.00 W/m2 unknown
09:59 69.8 °F 60.8 °F 30.3 in East 1.9 mph 3.7 mph 76% 0 in 334.00 W/m2 unknown
10:04 69.8 °F 60.8 °F 30.3 in SE 2.5 mph 3.7 mph 75% 0 in 352.00 W/m2 unknown
10:09 69.8 °F 60.8 °F 30.3 in SE 2.5 mph 3.7 mph 75% 0 in 360.00 W/m2 unknown
10:14 69.8 °F 60.8 °F 30.3 in SE 1.9 mph 3.7 mph 75% 0 in 373.00 W/m2 unknown
10:19 69.8 °F 62.6 °F 30.3 in SE 2.5 mph 3.7 mph 76% 0 in 383.00 W/m2 unknown
10:24 69.8 °F 62.6 °F 30.3 in East 1.2 mph 3.7 mph 77% 0 in 396.00 W/m2 unknown
10:29 69.8 °F 62.6 °F 30.3 in NE 3.1 mph 3.7 mph 77% 0 in 408.00 W/m2 unknown
10:34 69.8 °F 62.6 °F 30.3 in ENE 2.5 mph 3.7 mph 76% 0 in 422.00 W/m2 unknown
10:39 71.6 °F 62.6 °F 30.3 in ENE 2.5 mph 3.7 mph 76% 0 in 431.00 W/m2 unknown
10:44 71.6 °F 62.6 °F 30.3 in East 2.5 mph 3.7 mph 76% 0 in 441.00 W/m2 unknown
10:49 71.6 °F 62.6 °F 30.3 in ENE 4.3 mph 6.8 mph 76% 0 in 452.00 W/m2 unknown
10:54 71.6 °F 62.6 °F 30.3 in ENE 4.3 mph 6.8 mph 74% 0 in 466.00 W/m2 unknown
10:59 73.4 °F 64.4 °F 30.3 in ENE 3.7 mph 5 mph 76% 0 in 478.00 W/m2 unknown
11:04 73.4 °F 64.4 °F 30.3 in ENE 3.1 mph 5 mph 76% 0 in 485.00 W/m2 unknown
11:09 73.4 °F 62.6 °F 30.3 in East 5 mph 6.2 mph 72% 0 in 490.00 W/m2 unknown
11:14 73.4 °F 62.6 °F 30.3 in East 5 mph 6.8 mph 71% 0 in 497.00 W/m2 unknown
11:19 73.4 °F 62.6 °F 30.3 in East 4.3 mph 6.8 mph 71% 0 in 508.00 W/m2 unknown
11:24 73.4 °F 62.6 °F 30.3 in East 5 mph 6.8 mph 70% 0 in 515.00 W/m2 unknown
11:29 73.4 °F 62.6 °F 30.3 in East 3.7 mph 6.2 mph 70% 0 in 526.00 W/m2 unknown
11:34 73.4 °F 62.6 °F 30.3 in ESE 5 mph 6.8 mph 69% 0 in 534.00 W/m2 unknown
11:39 73.4 °F 62.6 °F 30.3 in ESE 5 mph 6.8 mph 68% 0 in 540.00 W/m2 unknown
11:44 73.4 °F 62.6 °F 30.3 in ENE 4.3 mph 6.8 mph 68% 0 in 543.00 W/m2 unknown
11:49 75.2 °F 64.4 °F 30.3 in East 4.3 mph 6.8 mph 69% 0 in 559.00 W/m2 unknown
11:54 75.2 °F 64.4 °F 30.3 in East 3.7 mph 5 mph 68% 0 in 564.00 W/m2 unknown
11:59 75.2 °F 62.6 °F 30.3 in East 3.7 mph 6.2 mph 67% 0 in 571.00 W/m2 unknown
12:04 75.2 °F 64.4 °F 30.3 in SE 3.7 mph 6.2 mph 67% 0 in 573.00 W/m2 unknown
12:09 75.2 °F 64.4 °F 30.3 in SSE 3.1 mph 5 mph 67% 0 in 575.00 W/m2 unknown
12:14 75.2 °F 64.4 °F 30.3 in ESE 2.5 mph 3.7 mph 68% 0 in 587.00 W/m2 unknown
12:19 75.2 °F 62.6 °F 30.3 in ESE 2.5 mph 3.7 mph 65% 0 in 596.00 W/m2 unknown
12:24 77 °F 62.6 °F 30.3 in ESE 2.5 mph 3.7 mph 64% 0 in 598.00 W/m2 unknown
12:29 77 °F 64.4 °F 30.3 in East 5 mph 6.2 mph 64% 0 in 598.00 W/m2 unknown
12:34 77 °F 62.6 °F 30.3 in ESE 4.3 mph 6.2 mph 63% 0 in 598.00 W/m2 unknown
12:39 77 °F 62.6 °F 30.3 in ENE 4.3 mph 6.2 mph 62% 0 in 608.00 W/m2 unknown
12:44 77 °F 62.6 °F 30.3 in ENE 4.3 mph 6.8 mph 62% 0 in 610.00 W/m2 unknown
12:49 78.8 °F 64.4 °F 30.3 in NE 3.1 mph 6.8 mph 63% 0 in 619.00 W/m2 unknown
12:54 78.8 °F 64.4 °F 30.3 in NE 3.1 mph 3.7 mph 63% 0 in 621.00 W/m2 unknown
12:59 78.8 °F 64.4 °F 30.3 in ESE 3.1 mph 5 mph 62% 0 in 622.00 W/m2 unknown
13:04 78.8 °F 62.6 °F 30.3 in East 5 mph 6.2 mph 61% 0 in 622.00 W/m2 unknown
13:09 78.8 °F 62.6 °F 30.3 in ENE 5 mph 8.1 mph 60% 0 in 619.00 W/m2 unknown
13:14 78.8 °F 64.4 °F 30.2 in ENE 5 mph 8.1 mph 60% 0 in 617.00 W/m2 unknown
13:19 78.8 °F 62.6 °F 30.2 in NE 4.3 mph 6.2 mph 59% 0 in 617.00 W/m2 unknown
13:24 78.8 °F 64.4 °F 30.2 in NE 3.7 mph 6.2 mph 60% 0 in 617.00 W/m2 unknown
13:29 78.8 °F 62.6 °F 30.2 in East 3.7 mph 6.8 mph 58% 0 in 622.00 W/m2 unknown
13:34 78.8 °F 62.6 °F 30.2 in East 4.3 mph 6.8 mph 58% 0 in 624.00 W/m2 unknown
13:39 78.8 °F 62.6 °F 30.2 in ESE 4.3 mph 6.8 mph 59% 0 in 622.00 W/m2 unknown
13:44 78.8 °F 64.4 °F 30.2 in ENE 4.3 mph 6.8 mph 58% 0 in 622.00 W/m2 unknown
13:49 80.6 °F 62.6 °F 30.2 in ENE 3.7 mph 6.8 mph 57% 0 in 619.00 W/m2 unknown
13:54 80.6 °F 64.4 °F 30.2 in ENE 5 mph 6.2 mph 57% 0 in 610.00 W/m2 unknown
13:59 80.6 °F 62.6 °F 30.2 in East 5 mph 6.2 mph 54% 0 in 610.00 W/m2 unknown
14:04 80.6 °F 62.6 °F 30.2 in East 3.7 mph 6.2 mph 56% 0 in 605.00 W/m2 unknown
14:09 80.6 °F 62.6 °F 30.2 in East 3.7 mph 5 mph 56% 0 in 601.00 W/m2 unknown
14:14 80.6 °F 64.4 °F 30.2 in ENE 3.1 mph 6.2 mph 57% 0 in 598.00 W/m2 unknown
14:19 80.6 °F 64.4 °F 30.2 in ENE 3.7 mph 6.2 mph 56% 0 in 591.00 W/m2 unknown
14:24 80.6 °F 62.6 °F 30.2 in ESE 3.7 mph 6.2 mph 55% 0 in 591.00 W/m2 unknown
14:29 80.6 °F 62.6 °F 30.2 in East 3.1 mph 5 mph 55% 0 in 591.00 W/m2 unknown
14:34 80.6 °F 62.6 °F 30.2 in NE 4.3 mph 6.2 mph 55% 0 in 582.00 W/m2 unknown
14:39 80.6 °F 62.6 °F 30.2 in ENE 3.7 mph 6.8 mph 54% 0 in 580.00 W/m2 unknown
14:44 80.6 °F 62.6 °F 30.2 in ENE 4.3 mph 6.8 mph 54% 0 in 575.00 W/m2 unknown
14:49 80.6 °F 62.6 °F 30.2 in East 5 mph 6.8 mph 53% 0 in 568.00 W/m2 unknown
14:54 80.6 °F 62.6 °F 30.2 in ESE 3.1 mph 5 mph 54% 0 in 561.00 W/m2 unknown
14:59 80.6 °F 64.4 °F 30.2 in ENE 3.1 mph 5 mph 56% 0 in 545.00 W/m2 unknown
15:04 80.6 °F 64.4 °F 30.2 in ENE 3.7 mph 5 mph 55% 0 in 536.00 W/m2 unknown
15:09 80.6 °F 62.6 °F 30.2 in East 3.1 mph 5 mph 53% 0 in 529.00 W/m2 unknown
15:14 80.6 °F 62.6 °F 30.2 in ESE 5 mph 6.8 mph 52% 0 in 524.00 W/m2 unknown
15:19 82.4 °F 62.6 °F 30.2 in East 5 mph 6.8 mph 53% 0 in 519.00 W/m2 unknown
15:24 82.4 °F 62.6 °F 30.2 in ENE 4.3 mph 6.8 mph 53% 0 in 513.00 W/m2 unknown
15:29 82.4 °F 62.6 °F 30.2 in East 3.7 mph 6.2 mph 52% 0 in 497.00 W/m2 unknown
15:34 80.6 °F 62.6 °F 30.2 in ENE 3.7 mph 6.2 mph 52% 0 in 483.00 W/m2 unknown
15:39 80.6 °F 62.6 °F 30.2 in ESE 4.3 mph 6.2 mph 53% 0 in 473.00 W/m2 unknown
15:44 80.6 °F 62.6 °F 30.2 in East 3.7 mph 6.2 mph 53% 0 in 471.00 W/m2 unknown
15:49 82.4 °F 62.6 °F 30.2 in ESE 3.1 mph 5 mph 52% 0 in 459.00 W/m2 unknown
15:54 82.4 °F 62.6 °F 30.2 in ESE 3.1 mph 5 mph 53% 0 in 452.00 W/m2 unknown
15:59 82.4 °F 62.6 °F 30.2 in East 3.7 mph 5 mph 53% 0 in 438.00 W/m2 unknown
16:04 82.4 °F 62.6 °F 30.2 in ESE 2.5 mph 5 mph 53% 0 in 429.00 W/m2 unknown
16:09 82.4 °F 64.4 °F 30.2 in East 1.9 mph 5 mph 55% 0 in 418.00 W/m2 unknown
16:14 82.4 °F 64.4 °F 30.2 in NE 3.1 mph 6.2 mph 55% 0 in 404.00 W/m2 unknown
16:19 82.4 °F 62.6 °F 30.2 in ESE 3.7 mph 6.2 mph 53% 0 in 394.00 W/m2 unknown
16:24 80.6 °F 62.6 °F 30.2 in East 2.5 mph 6.2 mph 54% 0 in 378.00 W/m2 unknown
16:29 82.4 °F 62.6 °F 30.2 in East 3.1 mph 3.7 mph 54% 0 in 371.00 W/m2 unknown
16:34 82.4 °F 62.6 °F 30.2 in East 3.7 mph 6.2 mph 54% 0 in 348.00 W/m2 unknown
16:39 82.4 °F 62.6 °F 30.2 in East 3.1 mph 6.2 mph 53% 0 in 330.00 W/m2 unknown
16:44 80.6 °F 62.6 °F 30.2 in East 3.1 mph 5 mph 54% 0 in 316.00 W/m2 unknown
16:49 80.6 °F 62.6 °F 30.2 in East 2.5 mph 5 mph 54% 0 in 299.00 W/m2 unknown
16:54 80.6 °F 62.6 °F 30.2 in East 2.5 mph 3.7 mph 53% 0 in 283.00 W/m2 unknown
16:59 80.6 °F 62.6 °F 30.2 in East 2.5 mph 3.7 mph 54% 0 in 276.00 W/m2 unknown
17:04 80.6 °F 62.6 °F 30.2 in ENE 3.1 mph 3.7 mph 54% 0 in 262.00 W/m2 unknown
17:09 80.6 °F 62.6 °F 30.2 in ENE 3.1 mph 3.7 mph 54% 0 in 248.00 W/m2 unknown
17:14 80.6 °F 64.4 °F 30.2 in ENE 3.1 mph 3.7 mph 56% 0 in 232.00 W/m2 unknown
17:19 80.6 °F 64.4 °F 30.2 in ENE 2.5 mph 3.7 mph 56% 0 in 221.00 W/m2 unknown
17:24 80.6 °F 64.4 °F 30.2 in ENE 3.1 mph 3.7 mph 57% 0 in 211.00 W/m2 unknown
17:29 80.6 °F 64.4 °F 30.2 in ENE 3.1 mph 3.7 mph 57% 0 in 197.00 W/m2 unknown
17:34 80.6 °F 64.4 °F 30.2 in ENE 2.5 mph 3.7 mph 58% 0 in 179.00 W/m2 unknown
17:39 80.6 °F 64.4 °F 30.2 in ENE 2.5 mph 3.7 mph 60% 0 in 167.00 W/m2 unknown
17:44 80.6 °F 64.4 °F 30.2 in ENE 3.1 mph 3.7 mph 60% 0 in 151.00 W/m2 unknown
17:49 80.6 °F 64.4 °F 30.2 in ENE 2.5 mph 3.7 mph 60% 0 in 139.00 W/m2 unknown
17:54 78.8 °F 64.4 °F 30.2 in ENE 1.9 mph 3.7 mph 60% 0 in 123.00 W/m2 unknown
17:59 78.8 °F 64.4 °F 30.2 in ENE 1.9 mph 3.7 mph 63% 0 in 107.00 W/m2 unknown
18:04 78.8 °F 66.2 °F 30.2 in ENE 1.9 mph 3.7 mph 65% 0 in 91.00 W/m2 unknown
18:09 78.8 °F 66.2 °F 30.2 in ENE 1.2 mph 3.1 mph 65% 0 in 79.00 W/m2 unknown
18:14 78.8 °F 66.2 °F 30.2 in ENE 1.2 mph 2.5 mph 65% 0 in 67.00 W/m2 unknown
18:19 77 °F 64.4 °F 30.2 in ENE 1.2 mph 2.5 mph 65% 0 in 56.00 W/m2 unknown
18:24 77 °F 64.4 °F 30.2 in ENE 1.2 mph 2.5 mph 67% 0 in 42.00 W/m2 unknown
18:29 77 °F 64.4 °F 30.2 in NE 1.2 mph 2.5 mph 68% 0 in 28.00 W/m2 unknown
18:34 77 °F 64.4 °F 30.2 in Calm   1.9 mph 68% 0 in 23.00 W/m2 unknown
18:39 75.2 °F 64.4 °F 30.2 in Calm   1.2 mph 69% 0 in 19.00 W/m2 unknown
18:44 75.2 °F 64.4 °F 30.2 in Calm   1.2 mph 71% 0 in 14.00 W/m2 unknown
18:49 75.2 °F 64.4 °F 30.2 in Calm     72% 0 in 11.00 W/m2 unknown
18:54 73.4 °F 64.4 °F 30.2 in Calm     72% 0 in 7.00 W/m2 unknown
18:59 73.4 °F 64.4 °F 30.2 in Calm     73% 0 in 5.00 W/m2 unknown
19:04 73.4 °F 64.4 °F 30.2 in Calm     75% 0 in 0.00 W/m2 unknown
19:09 73.4 °F 64.4 °F 30.2 in Calm     76% 0 in 0.00 W/m2 unknown
19:14 71.6 °F 64.4 °F 30.2 in Calm     76% 0 in 0.00 W/m2 unknown
19:19 71.6 °F 64.4 °F 30.2 in Calm     77% 0 in 0.00 W/m2 unknown
19:24 71.6 °F 64.4 °F 30.2 in NNE 0.6 mph 1.2 mph 77% 0 in 0.00 W/m2 unknown
19:29 71.6 °F 64.4 °F 30.2 in NNE 0.6 mph 1.2 mph 77% 0 in 0.00 W/m2 unknown
19:34 71.6 °F 64.4 °F 30.2 in NNE 0.6 mph 1.2 mph 77% 0 in 0.00 W/m2 unknown
19:39 69.8 °F 62.6 °F 30.2 in NNE 0.6 mph 1.2 mph 77% 0 in 0.00 W/m2 unknown
19:44 69.8 °F 62.6 °F 30.2 in Calm   1.2 mph 77% 0 in 0.00 W/m2 unknown
19:49 69.8 °F 62.6 °F 30.2 in Calm     77% 0 in 0.00 W/m2 unknown
19:54 69.8 °F 62.6 °F 30.2 in Calm     77% 0 in 0.00 W/m2 unknown
19:59 69.8 °F 62.6 °F 30.2 in Calm     78% 0 in 0.00 W/m2 unknown
20:04 69.8 °F 62.6 °F 30.2 in Calm     78% 0 in 0.00 W/m2 unknown
20:09 69.8 °F 62.6 °F 30.2 in Calm     78% 0 in 0.00 W/m2 unknown
20:14 69.8 °F 62.6 °F 30.2 in Calm     79% 0 in 0.00 W/m2 unknown
20:19 69.8 °F 62.6 °F 30.2 in Calm     79% 0 in 0.00 W/m2 unknown
20:24 69.8 °F 62.6 °F 30.2 in Calm     79% 0 in 0.00 W/m2 unknown
20:29 69.8 °F 62.6 °F 30.2 in Calm     79% 0 in 0.00 W/m2 unknown
20:34 68 °F 62.6 °F 30.2 in Calm     80% 0 in 0.00 W/m2 unknown
20:39 68 °F 62.6 °F 30.2 in Calm     80% 0 in 0.00 W/m2 unknown
20:44 68 °F 62.6 °F 30.2 in Calm     80% 0 in 0.00 W/m2 unknown
20:49 68 °F 62.6 °F 30.2 in Calm     80% 0 in 0.00 W/m2 unknown
20:54 68 °F 62.6 °F 30.2 in Calm     81% 0 in 0.00 W/m2 unknown
20:59 68 °F 62.6 °F 30.2 in Calm     81% 0 in 0.00 W/m2 unknown
21:04 68 °F 62.6 °F 30.2 in Calm     81% 0 in 0.00 W/m2 unknown
21:09 68 °F 62.6 °F 30.2 in Calm     82% 0 in 0.00 W/m2 unknown
21:14 68 °F 62.6 °F 30.2 in Calm     83% 0 in 0.00 W/m2 unknown
21:19 68 °F 60.8 °F 30.2 in Calm     82% 0 in 0.00 W/m2 unknown
21:24 66.2 °F 60.8 °F 30.2 in Calm     82% 0 in 0.00 W/m2 unknown
21:29 66.2 °F 60.8 °F 30.2 in Calm     82% 0 in 0.00 W/m2 unknown
21:34 66.2 °F 60.8 °F 30.2 in Calm     83% 0 in 0.00 W/m2 unknown
21:39 66.2 °F 60.8 °F 30.2 in Calm     83% 0 in 0.00 W/m2 unknown
21:44 66.2 °F 60.8 °F 30.2 in Calm     84% 0 in 0.00 W/m2 unknown
21:49 66.2 °F 60.8 °F 30.2 in Calm     84% 0 in 0.00 W/m2 unknown
21:54 66.2 °F 60.8 °F 30.2 in NE 0.6 mph 3.1 mph 85% 0 in 0.00 W/m2 unknown
21:59 66.2 °F 60.8 °F 30.2 in ENE 1.9 mph 3.7 mph 85% 0 in 0.00 W/m2 unknown
22:04 66.2 °F 60.8 °F 30.2 in ENE 1.9 mph 3.1 mph 85% 0 in 0.00 W/m2 unknown
22:09 64.4 °F 60.8 °F 30.2 in ENE 1.2 mph 1.9 mph 85% 0 in 0.00 W/m2 unknown
22:14 64.4 °F 60.8 °F 30.2 in NE 1.9 mph 2.5 mph 85% 0 in 0.00 W/m2 unknown
22:19 64.4 °F 60.8 °F 30.2 in NNE 2.5 mph 3.7 mph 85% 0 in 0.00 W/m2 unknown
22:24 64.4 °F 60.8 °F 30.2 in NE 2.5 mph 3.7 mph 85% 0 in 0.00 W/m2 unknown
22:29 64.4 °F 60.8 °F 30.2 in NNE 1.9 mph 3.7 mph 85% 0 in 0.00 W/m2 unknown
22:34 64.4 °F 60.8 °F 30.2 in NNE 2.5 mph 3.7 mph 85% 0 in 0.00 W/m2 unknown
22:39 64.4 °F 60.8 °F 30.2 in NNE 2.5 mph 3.7 mph 85% 0 in 0.00 W/m2 unknown
22:44 64.4 °F 60.8 °F 30.2 in ENE 3.7 mph 5 mph 85% 0 in 0.00 W/m2 unknown
22:49 66.2 °F 60.8 °F 30.2 in NE 3.7 mph 5 mph 85% 0 in 0.00 W/m2 unknown
22:54 66.2 °F 60.8 °F 30.2 in NE 4.3 mph 5 mph 84% 0 in 0.00 W/m2 unknown
22:59 66.2 °F 60.8 °F 30.2 in NE 4.3 mph 5 mph 84% 0 in 0.00 W/m2 unknown
23:04 66.2 °F 60.8 °F 30.2 in NE 3.1 mph 5 mph 83% 0 in 0.00 W/m2 unknown
23:09 66.2 °F 60.8 °F 30.2 in NE 3.7 mph 3.7 mph 83% 0 in 0.00 W/m2 unknown
23:14 66.2 °F 60.8 °F 30.2 in NE 3.1 mph 3.7 mph 83% 0 in 0.00 W/m2 unknown
23:19 66.2 °F 60.8 °F 30.2 in NE 3.1 mph 3.7 mph 83% 0 in 0.00 W/m2 unknown
23:24 64.4 °F 60.8 °F 30.2 in NE 3.1 mph 3.7 mph 83% 0 in 0.00 W/m2 unknown
23:29 64.4 °F 60.8 °F 30.2 in NE 3.1 mph 3.7 mph 83% 0 in 0.00 W/m2 unknown
23:34 64.4 °F 60.8 °F 30.2 in NE 3.1 mph 3.7 mph 83% 0 in 0.00 W/m2 unknown
23:39 66.2 °F 59 °F 30.2 in NE 2.5 mph 3.7 mph 82% 0 in 0.00 W/m2 unknown
23:44 64.4 °F 59 °F 30.2 in NNE 3.1 mph 3.7 mph 83% 0 in 0.00 W/m2 unknown
23:49 64.4 °F 59 °F 30.2 in NNE 2.5 mph 3.7 mph 83% 0 in 0.00 W/m2 unknown
23:54 64.4 °F 59 °F 30.2 in NNE 1.2 mph 3.1 mph 83% 0 in 0.00 W/m2 unknown
23:59 64.4 °F 59 °F 30.2 in NNE 1.2 mph 1.9 mph 84% 0 in 0.00 W/m2 unknown
Stazione Meteorologica MeteoMincio Rivalta s/M (MN)
Con i complimenti di Weather Underground - 4 mb



METEO PILLOLE
Maggior quantità di pioggia caduta in 6 ore in Italia
Cairo Montenotte (Savona)
Il 4 ottobre 2021 caddero 496mm di pioggia.
Share

Non seguire questo link o sarai bannato dal sito!